Simultaneous Nadir Overpasses (SNOs) Predictions

Prediction of SNOs between METOP-C and LANDSAT-8 Satellite Orbit:

Table of predicted SNOs for the next 14.0 days since TLE Epoch: 4/15/2023
Index Date (METOP-C) Time (METOP-C) Lat,Lon (METOP-C) SZA (METOP-C ) Date (LANDSAT-8) Time (LANDSAT-8) Lat,Lon (LANDSAT-8) SZA (LANDSAT-8 ) Distance(km) Time Diff (sec)
1 04/16/2023 11:31:19 81.11, 46.26 73.00 04/16/2023 11:32:00 81.12, 46.22 73.02 0.77 41
2 04/16/2023 12:21:58 -81.13,-145.89 106.95 04/16/2023 12:21:26 -81.14,-145.84 106.95 1.04 32
3 04/19/2023 07:05:43 81.10, 112.32 71.99 04/19/2023 07:06:14 81.11, 112.48 72.03 2.76 31
4 04/19/2023 07:56:21 -81.13, -79.48 107.91 04/19/2023 07:55:40 -81.13, -79.56 107.94 1.51 41
5 04/22/2023 02:40:06 81.10, 178.67 71.04 04/22/2023 02:40:27 81.10, 178.84 71.07 2.90 21
6 04/22/2023 03:30:43 -81.14, -12.77 108.82 04/22/2023 03:29:52 -81.15, -12.81 108.84 0.85 51
7 04/24/2023 22:14:26 81.12,-114.31 70.20 04/24/2023 22:14:37 81.13,-114.33 70.21 0.59 11
8 04/24/2023 23:05:04 -81.15, 53.85 109.70 04/24/2023 23:04:03 -81.15, 53.67 109.75 3.08 61
9 04/27/2023 16:58:31 -80.70, 136.14 111.84 04/27/2023 16:59:45 -80.51, 136.80 111.91 24.69 74
10 04/27/2023 17:48:49 81.11, -48.14 69.28 04/27/2023 17:48:49 81.11, -48.12 69.28 0.40 0



Historial Predications of SNOs between METOP-C and LANDSAT-8
